Date,TemperatureHighF,TemperatureAvgF,TemperatureLowF,DewpointHighF,DewpointAvgF,DewpointLowF,HumidityHigh,HumidityAvg,HumidityLow,PressureMaxIn,PressureMinIn,WindSpeedMaxMPH,WindSpeedAvgMPH,GustSpeedMaxMPH,PrecipitationSumIn
2013-1-1,53,40,33,0,0,0,0,0,100,30.25,30.19,9,1,10,0.00
2013-1-2,41,36,35,0,0,0,0,0,100,30.24,30.19,6,1,6,0.00
2013-1-3,46,42,38,0,0,0,0,0,100,30.25,30.16,0,0,0,0.00
2013-1-4,59,45,39,0,0,0,0,0,100,30.27,30.20,3,1,3,0.00
2013-1-5,43,42,40,0,0,0,0,0,100,30.26,30.09,4,1,4,0.00
2013-1-6,47,42,40,0,0,0,0,0,100,30.16,30.07,0,0,0,0.02
2013-1-7,49,44,40,0,0,0,0,0,100,30.21,30.16,3,1,3,0.00
2013-1-8,60,46,38,0,0,0,0,0,100,30.19,30.14,8,0,8,0.01
2013-1-9,51,42,36,0,0,0,0,0,100,30.15,29.87,19,2,19,0.59
2013-1-10,45,37,31,0,0,0,0,0,100,30.10,29.97,10,1,10,0.00
2013-1-11,46,35,29,0,0,0,0,0,100,30.18,30.09,7,1,7,0.00
2013-1-12,46,34,28,0,0,0,0,0,100,30.18,30.10,10,1,10,0.00
2013-1-13,47,34,27,0,0,0,0,0,100,30.22,30.13,10,0,10,0.01
2013-1-14,52,38,30,0,0,0,0,0,100,30.35,30.17,9,0,9,0.00
2013-1-15,53,39,32,0,0,0,0,0,100,30.45,30.35,8,0,8,0.00
2013-1-16,63,46,38,0,0,0,0,0,100,30.42,30.27,10,0,10,0.00
2013-1-17,68,49,40,0,0,0,0,0,100,30.28,30.19,5,0,5,0.00
2013-1-18,69,51,42,0,0,0,0,0,100,30.27,30.17,7,1,7,0.00
2013-1-19,69,50,42,0,0,0,0,0,100,30.28,30.19,7,1,7,0.00
2013-1-20,69,51,43,0,0,0,0,0,100,30.25,30.14,7,1,7,0.00
2013-1-21,69,52,42,0,0,0,0,0,100,30.21,30.14,8,0,8,0.00
2013-1-22,71,54,44,0,0,0,0,0,100,30.17,30.05,8,1,8,0.01
2013-1-23,62,55,49,0,0,0,0,0,100,30.11,30.01,14,2,14,0.02
2013-1-24,53,52,51,0,0,0,0,0,100,30.15,30.08,7,2,8,0.00
2013-1-25,54,54,54,0,0,0,0,0,100,30.04,30.04,0,0,0,0.00
2013-1-29,57,49,46,0,0,0,0,0,100,30.31,30.22,7,2,7,0.00
2013-1-30,63,53,45,0,0,0,0,0,100,30.34,30.27,8,1,8,0.01
2013-1-31,68,51,42,0,0,0,0,0,100,30.32,30.22,7,1,7,0.00
2013-2-1,72,54,45,0,0,0,0,0,100,30.25,30.16,7,1,7,0.00
2013-2-2,71,54,47,0,0,0,0,0,100,30.30,30.22,5,1,5,0.00
2013-2-3,68,52,44,0,0,0,0,0,100,30.22,30.12,12,1,12,0.00
2013-2-4,67,53,45,0,0,0,0,0,100,30.17,30.06,10,1,10,0.00
2013-2-5,58,49,41,0,0,0,0,0,100,30.11,30.02,10,1,14,0.00
2013-2-6,64,46,38,0,0,0,0,0,100,30.15,30.08,14,2,14,0.01
2013-2-7,47,42,38,0,0,0,0,0,100,30.14,29.96,9,1,9,0.06
2013-2-8,52,40,33,0,0,0,0,0,100,29.96,29.87,11,1,11,0.01
2013-2-9,56,42,33,0,0,0,0,0,100,30.08,29.92,12,1,12,0.01
2013-2-10,52,38,34,0,0,0,0,0,100,30.09,30.04,7,0,9,0.01
2013-2-13,64,53,45,0,0,0,0,0,100,30.32,30.22,11,1,11,0.00
2013-2-14,72,55,45,0,0,0,0,0,100,30.24,30.18,10,1,10,0.00
2013-2-15,75,56,47,0,0,0,0,0,100,30.31,30.24,9,0,9,0.00
2013-2-16,68,55,47,0,0,0,0,0,100,30.29,30.06,7,1,7,0.00
2013-2-17,63,49,43,0,0,0,0,0,100,30.06,30.00,8,1,8,0.00
2013-2-18,42,41,40,0,0,0,0,0,100,29.92,29.89,9,5,9,0.00
2013-2-19,41,37,33,0,0,0,0,0,100,29.90,29.69,15,2,15,0.23
2013-2-20,42,35,31,0,0,0,0,0,100,30.00,29.75,5,0,5,0.03
2013-2-21,59,44,35,0,0,0,0,0,100,30.13,29.99,17,1,17,0.02
2013-2-22,62,47,37,0,0,0,0,0,100,30.22,30.13,10,1,10,0.00
2013-2-23,57,46,40,0,0,0,0,0,100,30.19,30.10,17,3,17,0.00
2013-2-24,66,48,37,0,0,0,0,0,100,30.24,30.14,10,1,10,0.00
2013-2-25,64,48,39,0,0,0,0,0,100,30.27,30.17,11,2,11,0.01
2013-2-26,42,42,42,0,0,0,0,0,100,30.19,30.19,3,3,5,0.00
2013-3-10,62,58,45,0,0,0,0,0,100,30.31,30.29,7,1,7,0.00
2013-3-11,73,62,52,0,0,0,0,0,100,30.24,30.14,12,1,12,0.00
2013-3-12,78,59,47,0,0,0,0,0,100,30.19,30.11,8,1,8,0.00
2013-3-13,79,63,52,0,0,0,0,0,100,30.21,30.14,10,2,10,0.00
2013-3-14,76,65,56,0,0,0,0,0,100,30.19,30.12,12,1,12,0.00
2013-3-15,77,61,52,0,0,0,0,0,100,30.14,30.05,11,1,11,0.00
2013-3-16,69,54,49,0,0,0,0,0,100,30.09,30.03,8,1,9,0.00
2013-3-17,53,51,48,0,0,0,0,0,100,30.09,30.07,0,0,0,0.00
2013-3-18,70,56,46,0,0,0,0,0,100,30.11,30.05,10,1,10,0.00
2013-3-19,66,56,52,0,0,0,0,0,100,30.13,30.07,11,1,11,0.00
2013-3-20,53,51,50,0,0,0,0,0,100,30.12,30.09,8,0,8,0.03
2013-3-21,64,57,49,0,0,0,0,0,100,30.10,29.99,12,2,12,0.00
2013-3-22,49,48,48,0,0,0,0,0,100,30.05,30.05,0,0,0,0.00
2013-3-23,44,44,44,0,0,0,0,0,100,30.06,30.06,3,3,3,0.00
2013-3-24,72,60,47,0,0,0,0,0,100,30.10,29.99,11,1,11,0.00
2013-3-25,72,57,50,0,0,0,0,0,100,30.02,29.92,15,2,15,0.00
2013-3-26,69,56,46,0,0,0,0,0,100,29.99,29.93,13,1,13,0.01
2013-3-27,71,57,48,0,0,0,0,0,100,30.03,29.94,17,2,17,0.00
2013-3-28,65,55,51,0,0,0,0,0,100,30.12,30.02,8,1,8,0.01
2013-3-29,61,52,50,0,0,0,0,0,100,30.12,30.09,6,3,6,0.00
2013-4-1,64,56,47,0,0,0,0,0,100,30.18,30.14,10,2,10,0.00
2013-4-2,70,56,44,0,0,0,0,0,100,30.16,30.09,11,2,11,0.00
2013-4-3,78,59,48,0,0,0,0,0,100,30.16,30.01,8,1,8,0.00
2013-4-4,58,53,48,0,0,0,0,0,100,30.12,30.00,12,1,12,0.63
2013-4-5,64,55,50,0,0,0,0,0,100,30.17,30.11,11,1,11,0.02
2013-4-6,65,54,50,0,0,0,0,0,100,30.19,30.13,12,1,12,0.00
2013-4-8,53,53,53,0,0,0,0,0,100,29.94,29.94,0,0,0,0.00
2013-4-9,73,61,46,0,0,0,0,0,100,30.14,30.03,16,2,24,0.00
2013-4-10,81,67,53,0,0,0,0,0,100,30.21,30.05,14,2,14,0.00
2013-4-11,74,63,55,0,0,0,0,0,100,30.01,29.88,5,3,5,0.00
2013-4-12,76,66,58,0,0,0,0,0,100,29.90,29.85,8,1,8,0.00
2013-4-13,77,62,52,0,0,0,0,0,100,29.90,29.81,14,1,14,0.00
2013-4-14,72,57,48,0,0,0,0,0,100,29.88,29.76,12,2,12,0.00
2013-4-15,61,50,42,0,0,0,0,0,100,29.87,29.79,16,2,16,0.00
2013-4-16,66,48,40,0,0,0,0,0,100,30.02,29.87,16,1,16,0.00
2013-4-17,71,60,50,0,0,0,0,0,100,30.24,30.17,16,2,16,0.00
2013-4-18,74,58,44,0,0,0,0,0,100,30.28,30.21,10,1,10,0.00
2013-4-19,80,62,50,0,0,0,0,0,100,30.27,30.11,12,1,12,0.01
2013-4-20,82,64,53,0,0,0,0,0,100,30.13,30.01,15,2,15,0.00
2013-4-21,83,66,53,0,0,0,0,0,100,30.08,30.00,12,1,12,0.00
2013-4-22,73,60,56,0,0,0,0,0,100,30.02,29.98,7,1,7,0.00
2013-4-24,73,67,62,0,0,0,0,0,100,29.89,29.82,6,0,6,0.00
2013-4-25,80,65,54,0,0,0,0,0,100,30.11,29.89,11,1,11,0.01
2013-4-26,81,61,53,0,0,0,0,0,100,30.22,30.11,8,1,8,0.00
2013-4-27,84,73,65,0,0,0,0,0,100,30.24,30.11,4,1,4,0.00
2013-4-28,87,74,63,0,0,0,0,0,100,30.10,29.94,3,1,3,0.00
2013-4-29,84,72,65,0,0,0,0,0,100,29.94,29.85,3,1,3,0.00
2013-4-30,68,68,68,0,0,0,0,0,100,29.87,29.87,6,4,6,0.00
2013-5-1,87,71,61,0,0,0,0,0,100,30.15,29.93,7,4,7,0.00
2013-5-9,68,65,62,0,0,0,0,0,100,30.15,30.09,4,1,4,0.00
2013-5-10,88,75,57,0,0,0,0,0,100,30.18,30.12,8,1,8,0.00
2013-5-11,94,74,61,0,0,0,0,0,100,30.17,30.10,9,1,9,0.00
2013-5-12,97,77,66,0,0,0,0,0,100,30.18,30.06,10,2,10,0.02
2013-5-13,97,77,66,0,0,0,0,0,100,30.12,29.98,11,2,11,0.00
2013-5-14,93,74,64,0,0,0,0,0,100,29.98,29.92,12,2,12,0.00
2013-5-15,80,68,61,0,0,0,0,0,100,30.02,29.94,6,2,6,0.00
2013-5-16,61,56,54,0,0,0,0,0,100,30.02,29.95,4,0,4,0.01
2013-5-17,69,56,50,0,0,0,0,0,100,30.06,29.96,3,1,3,0.00
2013-5-18,82,61,52,0,0,0,0,0,100,30.14,30.06,6,2,6,0.00